Regional Weather Roundup
Issued by NWS Little Rock, AR

Home | Current Version | Previous Version | Graphics & Text | Print | Product List | Glossary On
Versions: 1 2 3 4 5 6 7 8 9 10 11 12 13 14 15 16 17 18 19 20 21 22 23 24 25 26 27 28 29 30 31 32
000
ASUS44 KLZK 212305
RWRLZK

WEATHER ROUNDUP FOR ARKANSAS
NATIONAL WEATHER SERVICE LITTLE ROCK AR
600 PM CDT SAT OCT 21 2017

NOTE: "FAIR" INDICATES FEW OR NO CLOUDS BELOW 12,000 FEET WITH NO
SIGNIFICANT WEATHER AND/OR OBSTRUCTIONS TO VISIBILITY.

ARZ001-003-010-029-220000-
NORTHWEST ARKANSAS

CITY           SKY/WX    TMP DP  RH WIND       PRES   REMARKS
FAYETTEVILLE   MOCLDY    74  67  78 SE9G17    29.91F
FORT SMITH     MOCLDY    80  67  64 SE12      29.88S
HARRISON       CLOUDY    72  65  78 SE10      29.97R
BENTONVILLE    PTCLDY    75  63  66 S13       29.91F
ROGERS         MOCLDY    74  64  71 SE10      29.91F
SILOAM SPGS    MOCLDY    75  63  66 S12G21    29.89F
HIGHFILL       PTCLDY    76  63  64 S17       29.89F
SPRINGDALE     PTCLDY    75  64  69 SE12G18   29.92F
$$

ARZ004-005-016-220000-
NORTH CENTRAL ARKANSAS

CITY           SKY/WX    TMP DP  RH WIND       PRES   REMARKS
BATESVILLE     CLOUDY    74  69  85 CALM      30.00S
FLIPPIN        CLOUDY    74  66  76 S8        29.97S
MTN HOME       MOCLDY    73  67  81 S6        29.97S
$$

ARZ040-041-220000-
WEST CENTRAL ARKANSAS

CITY           SKY/WX    TMP DP  RH WIND       PRES   REMARKS
MENA           CLOUDY    79  73  83 E3        29.93F
MOUNT IDA      CLOUDY    77  67  71 SE5       29.92
$$

ARZ009-017-025-026-028-220000-
NORTHEAST ARKANSAS

CITY           SKY/WX    TMP DP  RH WIND       PRES   REMARKS
JONESBORO      PTCLDY    80  65  59 SE14      30.01R
NEWPORT        MOCLDY    79  64  60 SE14      29.99S
WALNUT RIDGE   PTCLDY    80  63  55 S10       29.99S
BLYTHEVILLE    PTCLDY    77  62  59 SE12      30.05R
$$

ARZ022-023-033-042-044-220000-
CENTRAL ARKANSAS

CITY           SKY/WX    TMP DP  RH WIND       PRES   REMARKS
LITTLE ROCK    MOCLDY    77  71  82 S5        29.97S
N LITTLE ROCK    N/A     77  70  80 CALM      29.98S
JACKSONVILLE   CLOUDY    78  72  82 CALM      29.96F
SEARCY         CLOUDY    80  68  66 S10       29.98S
HOT SPRINGS    CLOUDY    80  68  66 SE9       29.95F
RUSSELLVILLE   CLOUDY    76  68  76 E6        29.93F
CLINTON        CLOUDY    75  68  78 SE5       29.98S
$$

ARZ036-220000-
EAST ARKANSAS

CITY           SKY/WX    TMP DP  RH WIND       PRES   REMARKS
WEST MEMPHIS   CLEAR     77  63  61 SE10      30.03R
$$

ARZ050-053-066-070-073-220000-
SOUTHWEST ARKANSAS

CITY           SKY/WX    TMP DP  RH WIND       PRES   REMARKS
ARKADELPHIA    FAIR      80  69  69 SE5       29.94F
CAMDEN         CLEAR     81  68  65 CALM      29.94S
TEXARKANA      PTCLDY    83  66  56 S7        29.91S HX  85
EL DORADO      PTCLDY    81  73  76 SE9       29.95S HX  86
DE QUEEN       MOCLDY    81  70  69 SE5       29.88S
$$

ARZ056-057-069-220000-
SOUTHEAST ARKANSAS

CITY           SKY/WX    TMP DP  RH WIND       PRES   REMARKS
PINE BLUFF     MOCLDY    81  67  62 SE12      29.97F
STUTTGART      PTCLDY    82  66  58 SE14      29.98F
MONTICELLO     TSTM      74  71  91 SE7       30.00S FOG

$$






USA.gov is the U.S. government's official web portal to all federal, state and local government web resources and services.